Culpeper, VA

6:16 PM EDT on September 20, 2017 (GMT -0400)
Culpeper Regional

Weather History for KCJR - January, 2013

Change the Weather History Date:

Thursday, January 24, 2013

  Actual Average (KOMH) Record (KOMH)
Temperature  
Mean Temperature 20 °F -  
Max Temperature 28 °F 46 °F 73 °F (1950)
Min Temperature 12 °F 23 °F 5 °F (1963)
Degree Days  
Heating Degree Days 45    
Moisture  
Dew Point 10 °F    
Average Humidity 67    
Maximum Humidity 100    
Minimum Humidity 29    
Precipitation  
Precipitation 0.00 in - - ()
Sea Level Pressure  
Sea Level Pressure 30.33 in    
Wind  
Wind Speed 6 mph (NNW)    
Max Wind Speed 18 mph    
Max Gust Speed 26 mph    
Visibility 8 miles    
Events Snow    
Averages and records for this station are not official NWS values.
T = Trace of Precipitation, MM = Missing Value Source: NWS Daily Summary

Daily Weather History Graph

Daily Weather History Graph

Search for Another Location

Airport or City:

Trip Planner

Search our weather history database for the weather conditions in past years. The results will help you decide how hot, cold, wet, or windy it might be!

Date:

Astronomy

Jan. 24, 2013 Rise Set
Actual Time 7:22 AM EST 5:24 PM EST
Civil Twilight 6:54 AM EST 5:53 PM EST
Nautical Twilight 6:22 AM EST 6:25 PM EST
Astronomical Twilight 5:50 AM EST 6:56 PM EST
Moon 3:25 PM EST (1/24) 5:18 AM EST (1/24)
Length of Visible Light 10h 58m
Length of Day
10h 01m
Waxing Gibbous, 94% of the Moon is Illuminated
Jan 24
Waxing Gibbous
Jan 26
Full
Feb 3
Last Quarter
Feb 10
New
Feb 17
First Quarter

Hourly Weather History & Observations

Time (EST) Temp. Windchill Dew Point Humidity Pressure Visibility Wind Dir Wind Speed Gust Speed Precip Events Conditions
12:15 AM 21.2 °F - 19.4 °F 93% 30.12 in 2.5 mi Calm Calm - N/A Snow Light Snow
12:55 AM 21.2 °F 16.4 °F 19.4 °F 93% 30.10 in 2.5 mi NE 3.5 mph - N/A Snow Light Snow
1:15 AM 21.2 °F 14.9 °F 19.4 °F 93% 30.10 in 3.0 mi NE 4.6 mph - N/A Snow Light Snow
1:35 AM 21.2 °F 14.9 °F 19.4 °F 93% 30.09 in 4.0 mi NNE 4.6 mph - N/A Snow Light Snow
1:55 AM 21.2 °F 14.9 °F 19.4 °F 93% 30.09 in 4.0 mi North 4.6 mph - N/A Snow Light Snow
2:15 AM 21.2 °F 16.4 °F 19.4 °F 93% 30.08 in 4.0 mi NNE 3.5 mph - N/A Snow Light Snow
2:35 AM 21.2 °F 14.9 °F 19.4 °F 93% 30.08 in 3.0 mi North 4.6 mph - N/A Snow Light Snow
2:55 AM 21.2 °F 16.4 °F 19.4 °F 93% 30.08 in 3.0 mi North 3.5 mph - N/A Snow Light Snow
3:15 AM 21.2 °F 16.4 °F 19.4 °F 93% 30.08 in 3.0 mi North 3.5 mph - N/A Snow Light Snow
3:35 AM 21.2 °F 14.9 °F 19.4 °F 93% 30.08 in 3.0 mi North 4.6 mph - N/A Snow Light Snow
3:55 AM 19.4 °F 12.8 °F 19.4 °F 100% 30.08 in 5.0 mi North 4.6 mph - N/A Snow Light Snow
4:15 AM 19.4 °F 12.8 °F 19.4 °F 100% 30.09 in 5.0 mi NNW 4.6 mph - N/A Snow Light Snow
4:35 AM 21.2 °F - 19.4 °F 93% 30.09 in 2.0 mi Calm Calm - N/A Snow Light Snow
4:55 AM 17.6 °F 12.3 °F 17.6 °F 100% 30.10 in 7.0 mi North 3.5 mph - N/A Snow Light Snow
5:15 AM 15.8 °F - 15.8 °F 100% 30.10 in 10.0 mi Calm Calm - N/A Snow Light Snow
5:35 AM 15.8 °F - 15.8 °F 100% 30.11 in 10.0 mi Calm Calm - N/A Snow Light Snow
5:55 AM 14.0 °F 8.2 °F 14.0 °F 100% 30.13 in 10.0 mi North 3.5 mph - N/A   Scattered Clouds
6:15 AM 17.6 °F 10.7 °F 17.6 °F 100% 30.14 in 10.0 mi North 4.6 mph - N/A   Overcast
6:35 AM 17.6 °F 10.7 °F 17.6 °F 100% 30.17 in 7.0 mi NNW 4.6 mph - N/A Snow Light Snow
6:55 AM 17.6 °F 8.2 °F 17.6 °F 100% 30.18 in 4.0 mi North 6.9 mph - N/A Snow Light Snow
7:15 AM 17.6 °F 8.2 °F 17.6 °F 100% 30.20 in 4.0 mi North 6.9 mph - N/A Snow Light Snow
7:35 AM 15.8 °F 8.6 °F 15.8 °F 100% 30.21 in 7.0 mi North 4.6 mph - N/A Snow Light Snow
7:55 AM 17.6 °F 10.7 °F 15.8 °F 93% 30.24 in 10.0 mi NNW 4.6 mph - N/A   Clear
8:15 AM 17.6 °F - 15.8 °F 93% 30.25 in 10.0 mi Calm Calm - N/A   Clear
8:35 AM 19.4 °F 12.8 °F 17.6 °F 93% 30.27 in 10.0 mi North 4.6 mph - N/A   Clear
8:55 AM 19.4 °F 12.8 °F 17.6 °F 93% 30.29 in 10.0 mi North 4.6 mph - N/A   Scattered Clouds
9:15 AM 21.2 °F 11.7 °F 15.8 °F 80% 30.31 in 10.0 mi NNW 8.1 mph - N/A   Scattered Clouds
9:35 AM 21.2 °F 12.6 °F 15.8 °F 80% 30.32 in 10.0 mi North 6.9 mph - N/A   Clear
9:55 AM 23.0 °F 12.4 °F 15.8 °F 74% 30.33 in 10.0 mi North 10.4 mph - N/A   Clear
10:15 AM 24.8 °F 15.3 °F 15.8 °F 69% 30.34 in 10.0 mi NNW 9.2 mph - N/A   Scattered Clouds
10:35 AM 24.8 °F 14.0 °F 14.0 °F 64% 30.35 in 10.0 mi NNW 11.5 mph 17.3 mph N/A   Mostly Cloudy
10:55 AM 24.8 °F 12.4 °F 12.2 °F 59% 30.36 in 10.0 mi North 15.0 mph - N/A   Overcast
11:15 AM 26.6 °F 15.7 °F 14.0 °F 59% 30.36 in 10.0 mi North 12.7 mph - N/A   Scattered Clouds
11:35 AM 26.6 °F 14.3 °F 10.4 °F 51% 30.36 in 10.0 mi NNW 16.1 mph 24.2 mph N/A   Clear
11:55 AM 26.6 °F 13.8 °F 10.4 °F 51% 30.35 in 10.0 mi NW 17.3 mph 26.5 mph N/A   Clear
12:15 PM 26.6 °F 13.4 °F 8.6 °F 47% 30.36 in 10.0 mi NNW 18.4 mph 26.5 mph N/A   Clear
12:35 PM 28.4 °F 19.1 °F 8.6 °F 43% 30.38 in 10.0 mi NNW 10.4 mph 23.0 mph N/A   Scattered Clouds
12:55 PM 28.4 °F 18.5 °F 6.8 °F 40% 30.38 in 10.0 mi NNW 11.5 mph 23.0 mph N/A   Mostly Cloudy
1:15 PM 26.6 °F 15.2 °F 3.2 °F 37% 30.38 in 10.0 mi NNW 13.8 mph 25.3 mph N/A   Scattered Clouds
1:35 PM 28.4 °F 18.0 °F 3.2 °F 34% 30.39 in 10.0 mi North 12.7 mph 19.6 mph N/A   Mostly Cloudy
1:55 PM 28.4 °F 16.2 °F 3.2 °F 34% 30.39 in 10.0 mi North 17.3 mph 20.7 mph N/A   Mostly Cloudy
2:15 PM 28.4 °F 17.5 °F 1.4 °F 31% 30.39 in 10.0 mi NNW 13.8 mph 25.3 mph N/A   Scattered Clouds
2:35 PM 28.4 °F 17.0 °F 3.2 °F 34% 30.40 in 10.0 mi NNW 15.0 mph 21.9 mph N/A   Scattered Clouds
2:55 PM 28.4 °F 17.5 °F 1.4 °F 31% 30.41 in 10.0 mi NNW 13.8 mph 24.2 mph N/A   Mostly Cloudy
3:15 PM 28.4 °F 16.2 °F 1.4 °F 31% 30.42 in 10.0 mi NNW 17.3 mph 25.3 mph N/A   Scattered Clouds
3:35 PM 28.4 °F 18.0 °F -0.4 °F 29% 30.44 in 10.0 mi NW 12.7 mph 25.3 mph N/A   Scattered Clouds
3:55 PM 28.4 °F 17.5 °F -0.4 °F 29% 30.44 in 10.0 mi NNW 13.8 mph 20.7 mph N/A   Clear
4:15 PM 26.6 °F 16.2 °F -0.4 °F 31% 30.44 in 10.0 mi NW 11.5 mph 23.0 mph N/A   Clear
4:35 PM 26.6 °F 15.2 °F -0.4 °F 31% 30.45 in 10.0 mi NNW 13.8 mph 20.7 mph N/A   Clear
4:55 PM 26.6 °F 16.8 °F 1.4 °F 34% 30.46 in 10.0 mi NNW 10.4 mph - N/A   Clear
5:15 PM 26.6 °F 19.1 °F 1.4 °F 34% 30.47 in 10.0 mi NW 6.9 mph - N/A   Clear
5:35 PM 24.8 °F 16.1 °F 1.4 °F 36% 30.47 in 10.0 mi NNW 8.1 mph - N/A   Clear
5:55 PM 24.8 °F 19.1 °F 1.4 °F 36% 30.49 in 10.0 mi NW 4.6 mph - N/A   Clear
6:15 PM 24.8 °F 14.6 °F 1.4 °F 36% 30.49 in 10.0 mi North 10.4 mph - N/A   Clear
6:35 PM 24.8 °F 16.1 °F 1.4 °F 36% 30.49 in 10.0 mi NW 8.1 mph - N/A   Clear
6:55 PM 24.8 °F 19.1 °F 1.4 °F 36% 30.50 in 10.0 mi NNW 4.6 mph - N/A   Clear
7:15 PM 23.0 °F 13.1 °F 3.2 °F 43% 30.50 in 10.0 mi NNW 9.2 mph - N/A   Clear
7:35 PM 23.0 °F 15.8 °F 3.2 °F 43% 30.52 in 10.0 mi NNW 5.8 mph - N/A   Clear
7:55 PM 23.0 °F 18.4 °F 3.2 °F 43% 30.52 in 10.0 mi NNW 3.5 mph - N/A   Clear
8:15 PM 21.2 °F - 3.2 °F 46% 30.52 in 10.0 mi Calm Calm - N/A   Clear
8:35 PM 21.2 °F - 3.2 °F 46% 30.52 in 10.0 mi Calm Calm - N/A   Clear
8:55 PM 21.2 °F 16.4 °F 3.2 °F 46% 30.52 in 10.0 mi NW 3.5 mph - N/A   Clear
9:15 PM 17.6 °F 12.3 °F 6.8 °F 63% 30.53 in 10.0 mi NW 3.5 mph - N/A   Clear
9:35 PM 17.6 °F - 6.8 °F 63% 30.53 in 10.0 mi Calm Calm - N/A   Clear
9:55 PM 15.8 °F - 6.8 °F 68% 30.53 in 10.0 mi Calm Calm - N/A   Clear
10:15 PM 15.8 °F - 6.8 °F 68% 30.53 in 10.0 mi Calm Calm - N/A   Clear
10:35 PM 14.0 °F - 6.8 °F 73% 30.53 in 10.0 mi Calm Calm - N/A   Clear
10:55 PM 15.8 °F - 8.6 °F 73% 30.52 in 10.0 mi Calm Calm - N/A   Clear
11:15 PM 12.2 °F - 8.6 °F 85% 30.53 in 10.0 mi Calm Calm - N/A   Clear
11:35 PM 15.8 °F 10.2 °F 8.6 °F 73% 30.53 in 10.0 mi WNW 3.5 mph - N/A   Clear
11:55 PM 14.0 °F - 8.6 °F 79% 30.53 in 10.0 mi Calm Calm - N/A   Clear